Weather History for Yakima, WA

Change the Weather History Date:

Friday, February 15, 2013

  Actual Average Record
Temperature  
Mean Temperature 42 °F 36 °F  
Max Temperature 57 °F 46 °F 61 °F (1972)
Min Temperature 26 °F 26 °F 1 °F (1956)
Degree Days  
Heating Degree Days 23 29  
Month to date heating degree days 361 452  
Since 1 July heating degree days 3630 4170  
Cooling Degree Days 0 0  
Month to date cooling degree days 0 0  
Year to date cooling degree days 0 0  
Moisture  
Dew Point 30 °F    
Average Humidity 66    
Maximum Humidity 85    
Minimum Humidity 47    
Precipitation  
Precipitation 0.00 in 0.03 in 0.30 in (1982)
Month to date precipitation T 0.43  
Year to date precipitation 0.10 1.57  
Snow  
Snow 0.00 in 0.10 in 0.90 in (1980)
Month to date snowfall 0.0 1.6  
Year to date snowfall 1.1 6.9  
Since 1 July snowfall 15.3 19.9  
Snow Depth 0.00 in    
Sea Level Pressure  
Sea Level Pressure 30.45 in    
Wind  
Wind Speed 3 mph (West)    
Max Wind Speed 9 mph    
Max Gust Speed 9 mph    
Visibility 10 miles    
Events      
T = Trace of Precipitation, MM = Missing Value Source: NWS Daily Summary

Daily Weather History Graph

Daily Weather History Graph

Search for Another Location

Airport:

Trip Planner

Search our weather history database for the weather conditions in past years. The results will help you decide how hot, cold, wet, or windy it might be!

Date:

Astronomy

Feb. 15, 2013 Rise Set
Actual Time 7:05 AM PST 5:27 PM PST
Civil Twilight 6:34 AM PST 5:59 PM PST
Nautical Twilight 5:58 AM PST 6:34 PM PST
Astronomical Twilight 5:24 AM PST 7:09 PM PST
Moon 9:20 AM PST (2/15) 11:59 PM PST (2/15)
Length of Visible Light 11h 24m
Length of Day
10h 22m
Waxing Crescent, 31% of the Moon is Illuminated
Feb 15
Waxing Crescent
Feb 17
First Quarter
Feb 25
Full
Mar 4
Last Quarter
Mar 11
New

Hourly Weather History & Observations

Time (PST) Temp. Windchill Dew Point Humidity Pressure Visibility Wind Dir Wind Speed Gust Speed Precip Events Conditions
12:53 AM 30.0 °F 22.4 °F 26.1 °F 85% 30.55 in 10.0 mi West 8.1 mph - N/A   Clear
1:53 AM 30.9 °F 24.3 °F 27.0 °F 85% 30.56 in 10.0 mi NW 6.9 mph - N/A   Clear
2:53 AM 28.9 °F - 25.0 °F 85% 30.55 in 10.0 mi Calm Calm - N/A   Clear
3:53 AM 28.0 °F - 24.1 °F 85% 30.54 in 10.0 mi Calm Calm - N/A   Clear
4:53 AM 27.0 °F 21.6 °F 23.0 °F 85% 30.54 in 10.0 mi West 4.6 mph - N/A   Clear
5:53 AM 27.0 °F 23.0 °F 23.0 °F 85% 30.54 in 10.0 mi WSW 3.5 mph - N/A   Clear
6:53 AM 27.0 °F - 23.0 °F 85% 30.54 in 10.0 mi Calm Calm - N/A   Clear
7:53 AM 30.0 °F - 25.0 °F 82% 30.55 in 10.0 mi Calm Calm - N/A   Clear
8:53 AM 34.0 °F - 28.9 °F 82% 30.56 in 10.0 mi Calm Calm - N/A   Clear
9:53 AM 43.0 °F - 33.1 °F 68% 30.55 in 10.0 mi Calm Calm - N/A   Clear
10:53 AM 46.9 °F - 33.1 °F 59% 30.53 in 10.0 mi Calm Calm - N/A   Clear
11:53 AM 51.1 °F - 34.0 °F 52% 30.51 in 10.0 mi Calm Calm - N/A   Clear
12:53 PM 53.1 °F - 35.1 °F 50% 30.46 in 10.0 mi Calm Calm - N/A   Clear
1:53 PM 54.0 °F - 35.1 °F 49% 30.41 in 10.0 mi ENE 5.8 mph - N/A   Clear
2:53 PM 55.9 °F - 35.1 °F 45% 30.39 in 10.0 mi SSE 4.6 mph - N/A   Clear
3:53 PM 55.0 °F - 36.0 °F 49% 30.37 in 10.0 mi Calm Calm - N/A   Clear
4:53 PM 53.1 °F - 36.0 °F 52% 30.36 in 10.0 mi South 3.5 mph - N/A   Clear
5:53 PM 44.1 °F - 32.0 °F 63% 30.34 in 10.0 mi Calm Calm - N/A   Clear
6:53 PM 42.1 °F - 33.1 °F 70% 30.33 in 10.0 mi Calm Calm - N/A   Clear
7:53 PM 36.0 °F 30.3 °F 30.0 °F 79% 30.33 in 10.0 mi West 6.9 mph - N/A   Clear
8:53 PM 37.0 °F 32.4 °F 30.9 °F 79% 30.32 in 10.0 mi West 5.8 mph - N/A   Clear
9:53 PM 32.0 °F 26.4 °F 28.0 °F 85% 30.31 in 8.0 mi West 5.8 mph - N/A   Clear
10:53 PM 33.1 °F 26.9 °F 28.9 °F 85% 30.30 in 7.0 mi WNW 6.9 mph - N/A   Clear
11:53 PM 30.9 °F 25.2 °F 27.0 °F 85% 30.27 in 7.0 mi WNW 5.8 mph - N/A   Clear